Location: Bryzozowice
(50.3667°N, 18.9667°E)
Time: 09:52:29
(UTC+00:00)

NOSS 2-1 (E) - Pass Details

Date: 24 January 2020
Orbit: 456 x 1748 km, 63.3° (Epoch: 20 January)

Event Time Altitude Azimuth Distance (km) Brightness Sun altitude
Rises 16:02:38 0° 316° (NW) 3,009 7.4 -6.6°
Reaches altitude 10° 16:04:40 10° 319° (NW) 2,229 6.7 -6.9°
Maximum altitude 16:09:47 75° 45° (NE) 940 4.3 -7.6°
Drops below altitude 10° 16:16:59 10° 131° (SE) 3,092 6.8 -8.7°
Sets 16:20:13 0° 133° (SE) 4,266 7.6 -9.2°
